#timestamp,LO_Frequency,Hit,StdDev 
1677668415.5,286047002.6,N
1677668435.3,286047000.2,N
1677668455.1,286047000.4,N
1677668475.9,286047002.1,N
1677668495.7,286047002.7,N
1677668515.6,286047000.6,N
1677668535.4,286046998.2,N
1677668555.2,286046999.6,N
1677668575.1,286046998.8,N
1677668576.0,286046998.8,N
1677668595.8,286046999.6,N
1677668615.6,286046997.7,N
1677668635.5,286046996.7,N
1677668655.3,286046997.8,N
1677668675.2,286046997.1,N
1677668695.9,286046997.7,N
1677668715.7,286046998.1,N
1677668735.6,286047002.0,N
1677668755.4,286047001.4,N
1677668775.2,286047001.4,N
1677668795.1,286047002.1,N
1677668796.0,286047002.1,N
1677668815.8,286047000.4,N
1677668835.7,286046998.3,N
1677668855.5,286046999.5,N
1677668875.3,286046997.2,N
1677668895.2,286046997.8,N
1677668915.9,286046999.2,N
1677668935.7,286046998.5,N
1677668955.6,286046998.8,N
1677668975.4,286046996.7,N
1677668995.2,286046999.0,N
1677669015.1,286046997.1,N
1677669016.0,286046997.1,N
1677669035.8,286046995.9,N
1677669055.7,286046994.1,Y
1677669075.5,286046994.0,P
1677669095.3,286046996.1,N
1677669115.2,286046995.8,N
1677669135.0,286046996.1,N
1677669135.9,286046996.1,N
1677669155.8,286046993.3,Y
1677669175.6,286046998.0,P
1677669195.4,286046996.7,P
1677669215.3,286046999.4,N
1677669235.1,286046997.5,N
1677669255.8,286046995.0,Y
1677669275.7,286046999.4,P
1677669295.5,286046998.4,N
1677669315.4,286046999.0,N
1677669335.2,286046997.1,Y
1677669355.0,286047000.8,P
1677669355.9,286047000.8,N
1677669375.8,286047000.5,N
1677669395.6,286046999.8,N
1677669415.5,286047001.9,N
1677669435.3,286047001.8,N
1677669455.1,286047001.7,N
1677669475.9,286047002.5,N
1677669495.7,286047001.8,N
1677669515.5,286047004.4,Y
1677669535.4,286047004.1,P
1677669555.2,286047004.2,N
1677669575.1,286047001.3,N
1677669576.0,286047001.3,N
1677669595.8,286047002.5,N
1677669615.6,286046999.9,N
1677669635.5,286046999.9,N
1677669655.3,286046998.5,N
1677669675.1,286046999.3,N
1677669695.9,286046997.7,N
1677669715.7,286046997.5,N
1677669735.6,286046995.0,N
1677669755.4,286046994.9,N
1677669775.2,286046996.2,N
1677669795.1,286046996.2,N
1677669815.9,286046995.4,N
1677669835.7,286046997.7,N
1677669855.6,286046993.4,N
1677669875.4,286046993.6,N
1677669895.2,286046993.5,N
1677669915.1,286046991.8,N
1677669916.0,286046991.8,N
1677669935.8,286046992.2,N
1677669955.6,286046992.4,N
1677669975.5,286046992.6,N
1677669995.3,286046993.0,N
1677670015.2,286046992.6,N
1677670035.9,286046992.2,N
1677670055.7,286046995.7,N
1677670075.6,286047000.7,N
1677670095.4,286046999.2,N
1677670115.2,286046999.3,N
1677670135.1,286047001.5,N
1677670136.0,286047001.5,N
1677670155.8,286047004.4,N
1677670175.7,286047006.5,N
1677670195.5,286047010.3,N
1677670215.3,286047007.4,N
1677670235.2,286047007.4,N
1677670255.9,286047007.7,N
1677670275.7,286047004.6,N
1677670295.6,286047004.3,N
1677670315.4,286047000.5,N
1677670335.3,286047002.4,N
1677670355.1,286047000.7,N
1677670356.0,286047000.7,N
1677670375.8,286046999.4,N
1677670395.7,286046995.3,N
1677670415.5,286046996.9,N
1677670435.3,286046995.2,N
1677670455.2,286046995.0,N
1677670475.0,286046999.0,N
1677670475.9,286046999.0,N
1677670495.8,286046999.7,N
1677670515.6,286047002.7,N
1677670535.4,286047000.5,N
1677670555.3,286046995.3,N
1677670575.1,286046993.7,N
1677670576.0,286046993.7,N
1677670595.8,286046997.0,N
1677670615.7,286046997.2,N
1677670635.5,286046996.6,N
1677670655.3,286046995.9,N
1677670675.2,286046996.3,N
1677670695.0,286046995.1,N
1677670695.9,286046995.1,N
1677670715.8,286046997.8,N
1677670735.6,286046997.9,N
1677670755.4,286046995.8,N
1677670775.3,286046995.7,N
1677670795.1,286046996.7,N
1677670815.8,286046995.6,N
1677670835.7,286046996.2,N
1677670855.5,286046999.6,N
1677670875.4,286046997.0,N
1677670895.2,286046997.0,N
1677670915.0,286046998.1,N
1677670915.9,286046998.1,N
1677670935.8,286046999.9,N
1677670955.6,286046998.8,N
1677670975.5,286046998.4,N
1677670995.3,286047001.2,N
1677671015.1,286046998.6,N
1677671035.9,286046998.4,N
1677671055.7,286046998.6,N
1677671075.5,286047002.2,N
1677671095.4,286047003.7,N
1677671115.2,286047003.5,N
1677671135.1,286047005.5,N
1677671136.0,286047005.5,N
1677671155.8,286047004.8,N
1677671175.6,286047001.8,N
1677671195.5,286047002.2,N
1677671215.3,286047002.8,N
1677671235.1,286046999.4,N
1677671255.9,286046999.6,N
1677671275.7,286047002.2,N
1677671295.6,286046999.8,N
1677671315.4,286047001.7,N
1677671335.2,286047003.8,N
1677671355.1,286047005.8,N
1677671356.0,286047005.8,N
1677671375.8,286047004.8,N
1677671395.6,286047005.3,N
1677671415.5,286047007.1,N
1677671435.3,286047007.1,N
1677671455.2,286047007.1,N
1677671475.9,286047007.4,N
1677671495.7,286047006.4,N
1677671515.6,286047008.5,N
1677671535.4,286047006.2,N
1677671555.2,286047006.8,N
1677671575.1,286047004.5,N
1677671576.0,286047004.5,N
1677671595.8,286047005.4,N
1677671615.7,286047007.6,Y
1677671635.5,286047001.0,P
1677671655.3,286046998.9,N
1677671675.2,286047000.5,N
1677671695.0,286047000.4,N
1677671695.9,286047000.4,N
1677671715.7,286047000.1,N
1677671735.6,286047000.9,N
1677671755.4,286047001.2,N
1677671775.3,286047000.8,N
1677671795.1,286046999.3,N
1677671796.0,286046999.3,N
1677671815.8,286046995.8,Y
1677671835.7,286046994.7,P
1677671855.5,286046991.3,N
1677671875.3,286046991.0,N
1677671895.2,286046993.1,N
1677671915.0,286046992.2,N
1677671915.9,286046992.2,N
1677671935.8,286046992.1,N
1677671955.6,286046992.0,N
1677671975.4,286046991.9,N
1677671995.3,286046994.3,N
